STARLINK-31252, 59083

Orbit data source: Space-Track

STARLINK-31252, 59083 is a payload satellite owned by SpaceX/Seattle (US) in LEO that was launched on Thu, 29 Feb 2024 UTC via an FALCON 9 launch vehicle from the Air Force Eastern Test Range (AFETR). Payload-class satellites include a variety of spacecraft equipped with specific instruments for various scientific and technological missions. These include communications satellites like Starlink; space stations such as the ISS; scientific satellites like the Hubble; Earth observation satellites from companies like Planet Labs, Umbra, and HawkEye 360; GPS; miniature CubeSats for education and research; and military/defense satellites.

Loading next visibility...
Identifier
59083, 2024-041K
Orbit
LEO
Country
Flag of USUS
Related business
Manufacturer
SpaceX/Seattle
Mission
Operational Commercial Communications
Bus & Motor
STARLINK V2M, Unknown motor
Mass
730 kg wet, ~700 kg dry
Launch date (UTC)
2024-02-29 (2 years ago)
Launch vehicle
FALCON 9
Launch site
Air Force Eastern Test Range (AFETR)
Object type
Payload
Rocket body
Debris
Shape & HBR
Box + 2 Pan, 17.7 m
Radar Cross Section
33.884 m², Large (>1 m²)

Expand to show TLE details & history
Last TLE update: 2 days ago

TLE from 2 days ago
0 STARLINK-31252
1 59083U 24041K   26171.27268700  .00000562  00000-0  29959-4 0  9996
2 59083  43.0052   8.1851 0001371 270.8318  89.2376 15.27582557130966
Epoch: 2026-06-20T06:32Z
TLE epoch observation values (Epoch: 2026-06-20T06:32:40.156Z)
Latitude
-0.00008°
Longitude
1.52802°
Altitude
482.805 km
Speed
7.626 km/s
True Right ascension
00h 32m 44s
True Declination
0° 00' 00"
Sunlit
Object was in daylight at epoch
Visualization orbit readout
Latitude
Unknown
Longitude
Unknown
Altitude
Unknown
Speed
Unknown
Apparent Right ascension
Unknown
Apparent Declination
Unknown
Sunlit
N/A
Visualization observer readout
Local Sidereal Time
23:08:49
Azimuth
Unknown
Elevation
Unknown
Doppler factor
Unknown
Orbital elements
Apogee altitude
485.927 km
Perigee altitude
484.045 km
Semi-major axis
6,863.123 km
Eccentricity
0.00014
Inclination
43.0052°
RAAN
8.1851°
Arg. of periapsis
270.8318°
True anomaly
89.25331°
Mean anomaly
89.2376°
Eccentric anomaly
89.24545°
Mean motion
3.81734 °/min
Orbital period
94.31 mins
BSTAR
0.000029959
Loading maneuver chart data...
Computing Atmospheric mass density...
Loading historical data...
Loading historical data...
Loading historical data...
Loading historical data...
Loading historical data...
Loading historical data...
Loading historical data...

Documentation

Showing up to 5 results
|